Overview Statistics Trail Chart Weather Telemetry Raw packets
 

This is the latest recevied weather packets stored in our database for station/object N9BLE. If no packets are shown the sender has not sent any weather packets the latest 10 day(s).

<< 66 67 68 69 70 71 72 >>
Time Temp. Humidity Pressure Rain* Wind** Luminosity Snow
1777578054 12.78° C 51% 1018 hPa 0 mm - 67 W/m² -
1777577749 12.78° C 52% 1018.1 hPa 0 mm - 92 W/m² -
1777577446 12.78° C 54% 1018.3 hPa 0 mm - 81 W/m² -
1777577144 12.22° C 49% 1018.2 hPa 0 mm - 69 W/m² -
1777576840 12.78° C 51% 1018.3 hPa 0 mm - 77 W/m² -
1777576539 13.33° C 49% 1018.4 hPa 0 mm - 105 W/m² -
1777576235 13.33° C 49% 1018.5 hPa 0 mm - 146 W/m² -
1777575931 13.33° C 49% 1018.5 hPa 0 mm - 159 W/m² -
1777575627 13.33° C 51% 1018.4 hPa 0 mm - 165 W/m² -
1777575324 12.78° C 51% 1018.4 hPa 0 mm - 194 W/m² -
1777575020 12.78° C 51% 1018.4 hPa 0 mm - 98 W/m² -
1777574716 12.78° C 49% 1018.4 hPa 0 mm - 101 W/m² -
1777574413 12.78° C 47% 1018.2 hPa 0 mm - 118 W/m² -
1777574109 12.78° C 45% 1018.3 hPa 0 mm - 110 W/m² -
1777573804 12.78° C 47% 1018.5 hPa 0 mm - 123 W/m² -
1777573500 12.78° C 42% 1018.4 hPa 0 mm - 119 W/m² -
1777573195 12.78° C 45% 1018.6 hPa 0 mm - 112 W/m² -
1777572893 12.78° C 44% 1018.4 hPa 0 mm - 127 W/m² -
1777572588 12.78° C 40% 1018.6 hPa 0 mm - 119 W/m² -
1777572283 12.78° C 40% 1018.7 hPa 0 mm - 125 W/m² -
1777571979 13.33° C 41% 1018.7 hPa 0 mm - 180 W/m² -
1777571679 13.33° C 42% 1018.6 hPa 0 mm - 162 W/m² -
1777571378 13.89° C 46% 1018.6 hPa 0 mm - 219 W/m² -
1777571073 13.89° C 42% 1019 hPa 0 mm - 228 W/m² -
1777570769 13.89° C 44% 1018.9 hPa 0 mm - 228 W/m² -

* Rain latest hour (hover to see other rain measurements)
** Current wind speed in m/s (hover to see current wind gust speed)